DELTA 1 R/B(2), 1318

Orbit data source: Space-Track

DELTA 1 R/B(2), 1318 is space debris in HEO originally from a launch on Tue, 06 Apr 1965 UTC launched from the Air Force Eastern Test Range (AFETR). Debris objects in space refer to the collection of defunct objects orbiting the Earth. Examples of debris include non-operational satellites, rocket bodies, and fragments generated from explosions, collisions, or faulty payload assembly.

Loading next visibility...
Identifier
1318, 1965-028B
Orbit
HEO
Last TLE update
10 hours ago
Origin
Manufacturer
ABL
Mission
Spacecraft
Bus & Motor
ALTAIR, Unknown motor
Mass
33 kg wet, 33 kg dry
Launch date (UTC)
1965-04-06 (60 years ago)
Launch vehicle
Unknown
Launch site
Air Force Eastern Test Range (AFETR)
Object type
Payload
Rocket body
Debris
Shape & HBR
Cyl, 1.5 m
Radar Cross Section
0.687 m², Medium (>0.1 m² and < 1m²)

Expand to show TLE details & history

TLE from 10 hours ago
0 DELTA 1 R/B(2)
1  1318U 65028B   25181.57848517 -.00000117  00000-0  00000+0 0  9995
2  1318  18.1960   1.9936 6940659 332.6209 266.1305  2.11820271251119
Epoch: 2025-06-30T13:53Z
TLE epoch observation values (Epoch: 2025-06-30T13:53:01.118Z)
Latitude
0.9186°
Longitude
52.05813°
Altitude
29,643.345 km
Speed
2.563 km/s
True Right ascension
11h 56m 47s
True Declination
0° 55' 03"
Sunlit
Object was in daylight at epoch
Visualization orbit readout
Latitude
4.06877°
Longitude
42.25039°
Altitude
34,219.582 km
Speed
2.018 km/s
Apparent Right ascension
11h 13m 22s
Apparent Declination
-1° 55' 02"
Sunlit
Object is in daylight
Visualization observer readout
Local Sidereal Time
11:48:12
Azimuth
192.921° SSW
Elevation
47.413°
Doppler factor
1
Orbital elements
Apogee altitude
37,014.974 km
Perigee altitude
1,458.295 km
Semi-major axis
25,614.772 km
Eccentricity
0.69407
Inclination
18.196°
RAAN
1.9936°
Arg. of periapsis
332.6209°
True anomaly
Unknown
Mean anomaly
266.1305°
Eccentric anomaly
Unknown
Mean motion
0.52943 °/min
Orbital period
679.98 mins
BSTAR
0
Loading maneuver chart data...
Loading SW <> Apogee altitude chart data...
Loading historical data...
Loading historical data...
Loading historical data...
Loading historical data...
Loading historical data...
Loading historical data...
Loading historical data...
Other satellites on launch #28 in the year 1965 (1965-04-06 UTC)

DELTA 1 R/B(2) Visibility forecast

Observer location: undefined°, undefined°

Span
Click to sort rows by Start time (UTC) header in descending order
Start Az.
Max El. time (UTC)
Max El. Az.
Max El.
End time (UTC)
End Az.
198 mins2025-07-01 00:11:26.132Z192.916° SSW2025-07-01 00:11:26.132Z192.916° SSW36.355°2025-07-01 03:29:26.132Z171.363° S
505 mins2025-07-01 15:46:26.132Z214.736° SW2025-07-01 22:08:26.132Z152.167° SSE36.139°2025-07-02 00:11:26.132Z172.131° S
|